TimeEET,TemperatureF,Dew PointF,Humidity,Sea Level PressureIn,VisibilityMPH,Wind Direction,Wind SpeedMPH,Gust SpeedMPH,PrecipitationIn,Events,Conditions,WindDirDegrees,DateUTC
12:00 AM,68.0,57.2,68,29.86,-9999.0,Calm,Calm,-,N/A,,Clear,0,2012-11-16 22:00:00
1:00 AM,66.2,57.2,73,29.86,-9999.0,Calm,Calm,-,N/A,,Clear,0,2012-11-16 23:00:00
2:00 AM,65,53,57,29.88,6,West,4.6,,,,,270,2012-11-17 00:00:00
2:00 AM,64.4,53.6,68,29.86,-9999.0,West,4.6,-,N/A,,Clear,270,2012-11-17 00:00:00
3:00 AM,64.4,53.6,68,29.86,-9999.0,NW,2.3,-,N/A,,Clear,310,2012-11-17 01:00:00
4:00 AM,64.4,53.6,68,29.86,-9999.0,WSW,9.2,-,N/A,,Clear,250,2012-11-17 02:00:00
5:00 AM,64.4,53.6,68,29.86,-9999.0,WSW,9.2,-,N/A,,Clear,250,2012-11-17 03:00:00
6:00 AM,62.6,51.8,68,29.89,-9999.0,WSW,9.2,-,N/A,,Clear,250,2012-11-17 04:00:00
7:00 AM,64.4,51.8,64,29.89,-9999.0,Calm,Calm,-,N/A,,Clear,0,2012-11-17 05:00:00
8:00 AM,69,53,47,29.90,6,WNW,6.9,,,,Clear,300,2012-11-17 06:00:00
8:00 AM,69.8,53.6,56,29.89,-9999.0,WNW,4.6,-,N/A,,Clear,300,2012-11-17 06:00:00
9:00 AM,77.0,59.0,54,29.92,-9999.0,NNW,6.9,-,N/A,,Clear,340,2012-11-17 07:00:00
10:00 AM,78.8,60.8,54,29.92,-9999.0,Calm,Calm,-,N/A,,Clear,0,2012-11-17 08:00:00
11:00 AM,82.4,66.2,58,29.89,-9999.0,ESE,3.5,-,N/A,,Clear,120,2012-11-17 09:00:00
12:00 PM,82.4,66.2,58,29.86,-9999.0,ESE,5.8,-,N/A,,Clear,120,2012-11-17 10:00:00
1:00 PM,82.4,66.2,58,29.86,-9999.0,ESE,4.6,-,N/A,,Clear,120,2012-11-17 11:00:00
2:00 PM,82,67,53,29.86,6,ESE,8.1,,,,Clear,110,2012-11-17 12:00:00
2:00 PM,82.4,68.0,62,29.83,-9999.0,ESE,8.1,-,N/A,,Clear,110,2012-11-17 12:00:00
3:00 PM,82.4,69.8,66,29.86,6.2,ESE,5.8,-,N/A,,Scattered Clouds,120,2012-11-17 13:00:00
4:00 PM,80.6,69.8,70,29.86,6.2,SE,6.9,-,N/A,,Scattered Clouds,130,2012-11-17 14:00:00
5:00 PM,78.8,69.8,74,29.86,6.2,SE,5.8,-,N/A,,Scattered Clouds,130,2012-11-17 15:00:00
6:00 PM,77.0,69.8,78,29.86,-9999.0,SSE,2.3,-,N/A,,Clear,160,2012-11-17 16:00:00
7:00 PM,77.0,69.8,78,29.89,-9999.0,South,2.3,-,N/A,,Clear,170,2012-11-17 17:00:00
8:00 PM,76,69,75,29.91,6,South,4.6,,,,,180,2012-11-17 18:00:00
8:00 PM,77.0,69.8,78,29.89,-9999.0,South,4.6,-,N/A,,Clear,180,2012-11-17 18:00:00
9:00 PM,75.2,68.0,78,29.89,-9999.0,Calm,Calm,-,N/A,,Clear,0,2012-11-17 19:00:00
10:00 PM,73.4,68.0,83,29.89,-9999.0,South,3.5,-,N/A,,Clear,180,2012-11-17 20:00:00
11:00 PM,69.8,66.2,88,29.89,-9999.0,Calm,Calm,-,N/A,,Clear,0,2012-11-17 21:00:00